Regional Weather Roundup
Issued by NWS Charleston, SC

Current Version | Previous Version | Graphics & Text | Print | Product List | Glossary On
Versions: 1 2 3 4 5 6 7 8 9 10 11 12 13 14 15 16 17 18 19 20 21 22 23 24 25 26 27 28 29 30 31 32 33 34 35 36 37 38 39 40 41 42 43 44 45 46 47 48 49 50
000
ASUS42 KCHS 281610
RWRCHS
REGIONAL WEATHER ROUNDUP
NATIONAL WEATHER SERVICE CHARLESTON SC
1200 PM EDT THU AUG 28 2014

NOTE: "FAIR" INDICATES FEW OR NO CLOUDS BELOW 12,000 FEET WITH NO
SIGNIFICANT WEATHER AND/OR OBSTRUCTIONS TO VISIBILITY.

NOT ALL STATIONS ARE QUALITY CONTROLLED BY THE NATIONAL
WEATHER SERVICE. USE DATA WITH CAUTION...ESPECIALLY
DEWPOINT OBSERVATIONS.

SCZ027-030-031-034>040-042>050-281700-
...SOUTH CAROLINA...

CITY           SKY/WX    TMP DP  RH WIND       PRES   REMARKS
N CHARLESTON   MOSUNNY   87  66  49 W3        30.05F
WATERFRONT PRK   N/A     82 N/A N/A SW5         N/A
FORT JOHNSON   NOT AVBL
MOUNT PLEASANT FAIR      84  66  54 CALM      30.05F
JOHNS ISLAND   SUNNY     88  64  45 W5        30.06S
PINOPOLIS        N/A     84  66  54 CALM      29.98R
MONCKS CORNER    N/A     86  70  58 W5        30.05F HX  90
SUMMERVILLE    FAIR      86  68  54 CALM      30.06F
BEAUFORT MCAS  MOSUNNY   87  63  44 VRB3      30.05F
BEAUFORT ARPT  FAIR      86  68  54 SW5       30.05S
HILTON HEAD IS SUNNY     86  66  51 CALM      30.06F
GEORGETOWN     NOT AVBL
WALTERBORO     SUNNY     88  57  35 W8        30.06F
ORANGEBURG     SUNNY     86  60  41 SW7       30.05F
BARNWELL       FAIR      88  63  42 SE3       30.06F
AIKEN          FAIR      88  61  40 CALM      30.08F
MANNING        FAIR      88  64  45 W3        30.05S
KINGSTREE      NOT AVBL
COLUMBIA       MOSUNNY   90  57  32 CALM      30.03F
SUMTER         SUNNY     88  61  39 W7        30.03S
FLORENCE       SUNNY     88  59  37 SW9       30.03S
MYRTLE BEACH   SUNNY     86  63  45 W12       30.04S
N MYRTLE BEACH NOT AVBL

$$

GAZ063-065-086>088-099>101-113>116-118-119-134-136>141-150-281700-
...GEORGIA...

CITY           SKY/WX    TMP DP  RH WIND       PRES   REMARKS
SAVANNAH ARPT  MOSUNNY   86  61  42 CALM      30.06S
HUNTER AAF     SUNNY     86  64  48 VRB3      30.03F
FORT STEWART   SUNNY     88  60  39 N7        30.04F
STATESBORO     NOT AVBL
SYLVANIA       SUNNY     86  67  52 CALM      30.06F
CLAXTON        NOT AVBL
THOMSON        SUNNY     90  65  43 N3        30.10S HX  91
AUGUSTA-BUSH   SUNNY     88  61  40 CALM      30.04F
AUGUSTA-DANIEL SUNNY     87  59  38 VRB5      30.06F
SWAINSBORO     FAIR      90  61  37 CALM      30.06F
VIDALIA          N/A     88  61  40 SW3       30.05F
ALMA           SUNNY     88  61  40 NE3       30.04F
WAYCROSS       SUNNY     89  67  49 N6        30.04F HX  91
JESUP            N/A     90  64  43 CALM      30.04F HX  91
BRUNSWICK      MOSUNNY   86  64  48 CALM      30.05F
SAINT SIMONS   PTSUNNY   83  68  60 S5        30.05S

$$

SCZ027-028-034-036>038-045-046-048>050-GAZ119-141-281700-
...LAKE AND SUPPLEMENTAL COASTAL OBSERVATIONS...

STATION/POSITION TIME  TEMP    WIND        PRES    WAVE   SWELL
                       AIR SEA DIR/SP/G            HT/PER HT/PER/DIR
                 (UTC) (F)     (DEG/KT/KT) (MB)    (FT/S) (FT/S/D)
UPR LAKE MARION  NOT AVBL
WINYAH BAY       1500   80     300/  7     1017.0S
LAKE MURRAY      1500   82     200/  6/  7 1016.9S
ACE BASIN NERRS  1500   81     260/  2     1018.0S
FORT PULASKI     1600   81     260/  3/  3 1018.0S
SAPELO ISLAND    1500   85     290/  2     1018.0S

$$

ANZ835-935-AMZ111-154-330-350-352-354-374-450-454-472-281700-
...C-MAN AND BUOY OBSERVATIONS...

STATION/POSITION TIME  TEMP    WIND        PRES    WAVE   SWELL
                       AIR SEA DIR/SP/G            HT/PER HT/PER/DIR
                 (UTC) (F)     (DEG/KT/KT) (MB)    (FT/S) (FT/S/D)
FOLLY BEACH CMAN 1500   81     270/  5/  7 1018.3R
BUOY 41004       1600   79 83  320/  6/  8 1017.4S   4/ 9   3/ 9
BUOY 41008       1600   80 85   10/  8/ 10 1017.3F   3/11   3/ 80/11
5E ST. MARYS GA  1600      84                N/A     3/11   2/ 90/11
FRYING PAN BUOY  NOT AVBL
BUOY 41025       1600   80     270/ 14/ 17 1014.8F   5/11   3/130/11
CAPE LOOKOUT NC  1500   80     270/ 10/ 12 1015.9R
BUOY 41002       1549   80 81  310/ 10/ 16 1018.0R   7/ 8   7/ 80/ 8
BUOY 41010       1600   83 84  130/  6/  8 1017.3S   7/ 9   7/ 40/ 9
BUOY 41012       NOT AVBL
ST AUGUSTINE FL  1600   79      20/  7/  8 1018.2R
CAPERS NEARSHORE 1500   82     280/  8/  8   N/A
FRIPP NEARSHORE  NOT AVBL


$$



USA.gov is the U.S. government's official web portal to all federal, state and local government web resources and services.